Time,TemperatureF,DewpointF,PressureIn,WindDirection,WindDirectionDegrees,WindSpeedMPH,WindSpeedGustMPH,Humidity,HourlyPrecipIn,Conditions,Clouds,dailyrainin,SoftwareType,DateUTC
2013-03-15 00:03:00,35.0,6.0,29.88,NW,315,2.0,9.0,29,0.00,,,0.00,,2013-03-15 04:03:00,
2013-03-15 00:12:00,35.0,6.0,29.88,NW,315,2.0,9.0,29,0.00,,,0.00,,2013-03-15 04:12:00,
2013-03-15 00:23:00,35.0,6.0,29.88,NW,311,6.0,14.0,29,0.00,,,0.00,,2013-03-15 04:23:00,
2013-03-15 00:33:00,35.0,6.0,29.88,NW,321,11.0,22.0,29,0.00,,,0.00,,2013-03-15 04:33:00,
2013-03-15 00:43:00,35.0,6.0,29.88,NW,321,11.0,22.0,29,0.00,,,0.00,,2013-03-15 04:43:00,
2013-03-15 00:52:00,35.0,7.0,29.88,NW,324,7.0,16.0,30,0.00,,,0.00,,2013-03-15 04:52:00,
2013-03-15 01:02:00,34.0,7.0,29.89,NW,306,6.0,13.0,32,0.00,,,0.00,,2013-03-15 05:02:00,
2013-03-15 01:12:00,34.0,7.0,29.89,NW,306,6.0,13.0,32,0.00,,,0.00,,2013-03-15 05:12:00,
2013-03-15 01:23:00,34.0,7.0,29.89,WNW,287,7.0,16.0,32,0.00,,,0.00,,2013-03-15 05:23:00,
2013-03-15 01:32:00,33.0,8.0,29.89,NW,313,4.0,11.0,35,0.00,,,0.00,,2013-03-15 05:32:00,
2013-03-15 01:42:00,33.0,8.0,29.89,NW,313,4.0,11.0,35,0.00,,,0.00,,2013-03-15 05:42:00,
2013-03-15 01:52:00,33.0,8.0,29.89,NW,325,5.0,10.0,35,0.00,,,0.00,,2013-03-15 05:52:00,
2013-03-15 02:02:00,33.0,10.0,29.90,WNW,295,5.0,11.0,37,0.00,,,0.00,,2013-03-15 06:02:00,
2013-03-15 02:12:00,33.0,10.0,29.90,WNW,295,5.0,11.0,37,0.00,,,0.00,,2013-03-15 06:12:00,
2013-03-15 02:22:00,33.0,10.0,29.90,WNW,296,7.0,15.0,37,0.00,,,0.00,,2013-03-15 06:22:00,
2013-03-15 02:32:00,33.0,10.0,29.90,NW,317,7.0,13.0,38,0.00,,,0.00,,2013-03-15 06:32:00,
2013-03-15 02:42:00,33.0,10.0,29.90,NW,317,7.0,13.0,38,0.00,,,0.00,,2013-03-15 06:42:00,
2013-03-15 02:52:00,32.0,9.0,29.90,WNW,301,5.0,12.0,38,0.00,,,0.00,,2013-03-15 06:52:00,
2013-03-15 03:02:00,32.0,10.0,29.89,NW,311,9.0,17.0,39,0.00,,,0.00,,2013-03-15 07:02:00,
2013-03-15 03:12:00,32.0,10.0,29.89,NW,311,9.0,17.0,39,0.00,,,0.00,,2013-03-15 07:12:00,
2013-03-15 03:22:00,32.0,10.0,29.89,WNW,300,7.0,16.0,39,0.00,,,0.00,,2013-03-15 07:22:00,
2013-03-15 03:32:00,32.0,10.0,29.89,West,279,5.0,23.0,40,0.00,,,0.00,,2013-03-15 07:32:00,
2013-03-15 03:42:00,32.0,10.0,29.89,West,279,5.0,23.0,40,0.00,,,0.00,,2013-03-15 07:42:00,
2013-03-15 03:52:00,32.0,11.0,29.89,WNW,287,6.0,11.0,41,0.00,,,0.00,,2013-03-15 07:52:00,
2013-03-15 04:02:00,31.0,10.0,29.90,NW,325,9.0,14.0,41,0.00,,,0.00,,2013-03-15 08:02:00,
2013-03-15 04:12:00,31.0,10.0,29.90,NW,325,9.0,14.0,41,0.00,,,0.00,,2013-03-15 08:12:00,
2013-03-15 04:23:00,31.0,11.0,29.90,WNW,292,6.0,13.0,42,0.00,,,0.00,,2013-03-15 08:23:00,
2013-03-15 04:33:00,31.0,11.0,29.90,NW,307,4.0,11.0,43,0.00,,,0.00,,2013-03-15 08:33:00,
2013-03-15 04:42:00,31.0,11.0,29.90,NW,307,4.0,11.0,43,0.00,,,0.00,,2013-03-15 08:42:00,
2013-03-15 04:52:00,31.0,11.0,29.90,NW,307,4.0,12.0,43,0.00,,,0.00,,2013-03-15 08:52:00,
2013-03-15 05:02:00,30.0,11.0,29.89,WNW,292,5.0,9.0,45,0.00,,,0.00,,2013-03-15 09:02:00,
2013-03-15 05:12:00,30.0,11.0,29.89,WNW,292,5.0,9.0,45,0.00,,,0.00,,2013-03-15 09:12:00,
2013-03-15 05:22:00,30.0,11.0,29.89,WNW,291,4.0,11.0,45,0.00,,,0.00,,2013-03-15 09:22:00,
2013-03-15 05:33:00,30.0,12.0,29.90,WNW,286,4.0,9.0,47,0.00,,,0.00,,2013-03-15 09:33:00,
2013-03-15 05:43:00,30.0,12.0,29.90,WNW,286,4.0,9.0,47,0.00,,,0.00,,2013-03-15 09:43:00,
2013-03-15 05:52:00,30.0,12.0,29.90,WNW,284,6.0,9.0,47,0.00,,,0.00,,2013-03-15 09:52:00,
2013-03-15 06:03:00,30.0,12.0,29.89,WNW,290,6.0,13.0,47,0.00,,,0.00,,2013-03-15 10:03:00,
2013-03-15 06:13:00,30.0,12.0,29.89,WNW,290,6.0,13.0,47,0.00,,,0.00,,2013-03-15 10:13:00,
2013-03-15 06:23:00,30.0,12.0,29.89,WNW,296,5.0,10.0,47,0.00,,,0.00,,2013-03-15 10:23:00,
2013-03-15 06:33:00,30.0,13.0,29.90,West,277,3.0,12.0,48,0.00,,,0.00,,2013-03-15 10:33:00,
2013-03-15 06:43:00,30.0,13.0,29.90,West,277,3.0,12.0,48,0.00,,,0.00,,2013-03-15 10:43:00,
2013-03-15 06:52:00,30.0,13.0,29.90,West,277,4.0,8.0,48,0.00,,,0.00,,2013-03-15 10:52:00,
2013-03-15 07:03:00,30.0,13.0,29.91,WNW,283,7.0,13.0,48,0.00,,,0.00,,2013-03-15 11:03:00,
2013-03-15 07:12:00,30.0,13.0,29.91,WNW,283,7.0,13.0,48,0.00,,,0.00,,2013-03-15 11:12:00,
2013-03-15 07:23:00,30.0,14.0,29.91,WNW,290,7.0,12.0,50,0.00,,,0.00,,2013-03-15 11:23:00,
2013-03-15 07:32:00,30.0,14.0,29.90,West,266,6.0,13.0,50,0.00,,,0.00,,2013-03-15 11:32:00,
2013-03-15 07:42:00,30.0,14.0,29.90,West,266,6.0,13.0,50,0.00,,,0.00,,2013-03-15 11:42:00,
2013-03-15 07:52:00,30.0,14.0,29.90,West,266,6.0,13.0,50,0.00,,,0.00,,2013-03-15 11:52:00,
2013-03-15 08:02:00,29.0,13.0,29.91,West,279,5.0,11.0,50,0.00,,,0.00,,2013-03-15 12:02:00,
2013-03-15 08:12:00,29.0,13.0,29.91,West,279,5.0,11.0,50,0.00,,,0.00,,2013-03-15 12:12:00,
2013-03-15 08:23:00,30.0,14.0,29.91,WNW,298,6.0,13.0,50,0.00,,,0.00,,2013-03-15 12:23:00,
2013-03-15 08:32:00,30.0,13.0,29.91,WNW,293,6.0,13.0,48,0.00,,,0.00,,2013-03-15 12:32:00,
2013-03-15 08:42:00,30.0,13.0,29.91,WNW,293,6.0,13.0,48,0.00,,,0.00,,2013-03-15 12:42:00,
2013-03-15 08:52:00,31.0,14.0,29.91,WNW,285,7.0,15.0,48,0.00,,,0.00,,2013-03-15 12:52:00,
2013-03-15 09:02:00,32.0,14.0,29.91,WNW,290,6.0,15.0,46,0.00,,,0.00,,2013-03-15 13:02:00,
2013-03-15 09:12:00,32.0,14.0,29.91,WNW,290,6.0,15.0,46,0.00,,,0.00,,2013-03-15 13:12:00,
2013-03-15 09:22:00,32.0,14.0,29.91,WNW,296,6.0,17.0,46,0.00,,,0.00,,2013-03-15 13:22:00,
2013-03-15 09:32:00,32.0,13.0,29.91,WNW,286,6.0,15.0,45,0.00,,,0.00,,2013-03-15 13:32:00,
2013-03-15 09:42:00,32.0,13.0,29.91,WNW,286,6.0,15.0,45,0.00,,,0.00,,2013-03-15 13:42:00,
2013-03-15 09:52:00,32.0,13.0,29.91,West,271,8.0,14.0,45,0.00,,,0.00,,2013-03-15 13:52:00,
2013-03-15 10:02:00,33.0,12.0,29.90,WNW,292,9.0,18.0,42,0.00,,,0.00,,2013-03-15 14:02:00,
2013-03-15 10:12:00,33.0,12.0,29.90,WNW,292,9.0,18.0,42,0.00,,,0.00,,2013-03-15 14:12:00,
2013-03-15 10:22:00,33.0,12.0,29.90,West,276,7.0,17.0,42,0.00,,,0.00,,2013-03-15 14:22:00,
2013-03-15 10:33:00,34.0,12.0,29.88,WNW,290,6.0,12.0,39,0.00,,,0.00,,2013-03-15 14:33:00,
2013-03-15 10:42:00,34.0,12.0,29.88,WNW,290,6.0,12.0,39,0.00,,,0.00,,2013-03-15 14:42:00,
2013-03-15 10:52:00,35.0,12.0,29.88,WNW,300,6.0,13.0,38,0.00,,,0.00,,2013-03-15 14:52:00,
2013-03-15 11:02:00,36.0,12.0,29.87,WNW,288,7.0,14.0,37,0.00,,,0.00,,2013-03-15 15:02:00,
2013-03-15 11:13:00,36.0,12.0,29.87,WNW,288,7.0,14.0,37,0.00,,,0.00,,2013-03-15 15:13:00,
2013-03-15 11:23:00,36.0,12.0,29.87,West,280,5.0,15.0,36,0.00,,,0.00,,2013-03-15 15:23:00,
2013-03-15 11:33:00,38.0,12.0,29.86,WNW,297,7.0,13.0,34,0.00,,,0.00,,2013-03-15 15:33:00,
2013-03-15 11:42:00,38.0,13.0,29.86,WNW,302,9.0,16.0,35,0.00,,,0.00,,2013-03-15 15:42:00,
2013-03-15 11:52:00,38.0,13.0,29.86,WNW,302,9.0,16.0,35,0.00,,,0.00,,2013-03-15 15:52:00,
2013-03-15 12:03:00,39.0,15.0,29.84,WNW,290,3.0,13.0,37,0.00,,,0.00,,2013-03-15 16:03:00,
2013-03-15 12:12:00,40.0,15.0,29.84,SW,227,5.0,14.0,35,0.00,,,0.00,,2013-03-15 16:12:00,
2013-03-15 12:23:00,40.0,15.0,29.84,SW,227,5.0,14.0,35,0.00,,,0.00,,2013-03-15 16:23:00,
2013-03-15 12:32:00,42.0,19.0,29.82,South,181,7.0,16.0,39,0.00,,,0.00,,2013-03-15 16:32:00,
2013-03-15 12:42:00,42.0,19.0,29.82,South,181,7.0,16.0,39,0.00,,,0.00,,2013-03-15 16:42:00,
2013-03-15 12:52:00,42.0,19.0,29.82,West,279,11.0,19.0,39,0.00,,,0.00,,2013-03-15 16:52:00,
2013-03-15 13:02:00,43.0,19.0,29.80,West,266,7.0,17.0,38,0.00,,,0.00,,2013-03-15 17:02:00,
2013-03-15 13:22:00,43.0,19.0,29.80,West,266,9.0,13.0,37,0.00,,,0.00,,2013-03-15 17:22:00,
2013-03-15 13:32:00,44.0,20.0,29.78,SW,234,7.0,14.0,38,0.00,,,0.00,,2013-03-15 17:32:00,
2013-03-15 13:42:00,44.0,20.0,29.78,SW,234,7.0,14.0,38,0.00,,,0.00,,2013-03-15 17:42:00,
2013-03-15 13:52:00,44.0,19.0,29.78,West,269,8.0,16.0,37,0.00,,,0.00,,2013-03-15 17:52:00,
2013-03-15 14:03:00,43.0,19.0,29.77,WNW,282,7.0,20.0,37,0.00,,,0.00,,2013-03-15 18:03:00,
2013-03-15 14:12:00,43.0,19.0,29.77,WNW,282,7.0,20.0,37,0.00,,,0.00,,2013-03-15 18:12:00,
2013-03-15 14:22:00,44.0,19.0,29.77,WNW,295,6.0,16.0,37,0.00,,,0.00,,2013-03-15 18:22:00,
2013-03-15 14:32:00,44.0,20.0,29.75,West,267,11.0,20.0,38,0.00,,,0.00,,2013-03-15 18:32:00,
2013-03-15 14:42:00,44.0,20.0,29.75,West,267,11.0,20.0,38,0.00,,,0.00,,2013-03-15 18:42:00,
2013-03-15 14:52:00,44.0,20.0,29.75,West,267,9.0,21.0,38,0.00,,,0.00,,2013-03-15 18:52:00,
2013-03-15 15:02:00,46.0,22.0,29.73,WNW,285,10.0,18.0,38,0.00,,,0.00,,2013-03-15 19:02:00,
2013-03-15 15:12:00,46.0,22.0,29.73,WNW,285,10.0,18.0,38,0.00,,,0.00,,2013-03-15 19:12:00,
2013-03-15 15:22:00,46.0,21.0,29.73,WSW,241,8.0,17.0,37,0.00,,,0.00,,2013-03-15 19:22:00,
2013-03-15 15:32:00,46.0,22.0,29.71,NW,304,11.0,26.0,38,0.00,,,0.00,,2013-03-15 19:32:00,
2013-03-15 15:42:00,46.0,22.0,29.71,NW,304,11.0,26.0,38,0.00,,,0.00,,2013-03-15 19:42:00,
2013-03-15 15:52:00,45.0,22.0,29.71,North,11,8.0,22.0,39,0.00,,,0.00,,2013-03-15 19:52:00,
2013-03-15 16:03:00,46.0,22.0,29.70,West,278,8.0,17.0,38,0.00,,,0.00,,2013-03-15 20:03:00,
2013-03-15 16:12:00,46.0,22.0,29.70,West,278,8.0,17.0,38,0.00,,,0.00,,2013-03-15 20:12:00,
2013-03-15 16:22:00,46.0,22.0,29.70,WNW,290,10.0,20.0,38,0.00,,,0.00,,2013-03-15 20:22:00,
2013-03-15 16:32:00,48.0,23.0,29.68,West,277,11.0,24.0,37,0.00,,,0.00,,2013-03-15 20:32:00,
2013-03-15 16:42:00,48.0,23.0,29.68,West,277,11.0,24.0,37,0.00,,,0.00,,2013-03-15 20:42:00,
2013-03-15 16:52:00,47.0,22.0,29.68,SSW,213,10.0,22.0,37,0.00,,,0.00,,2013-03-15 20:52:00,
2013-03-15 17:02:00,47.0,23.0,29.67,West,277,8.0,20.0,38,0.00,,,0.00,,2013-03-15 21:02:00,
2013-03-15 17:12:00,47.0,23.0,29.67,West,277,8.0,20.0,38,0.00,,,0.00,,2013-03-15 21:12:00,
2013-03-15 17:22:00,48.0,22.0,29.67,WNW,302,9.0,21.0,36,0.00,,,0.00,,2013-03-15 21:22:00,
2013-03-15 17:33:00,47.0,23.0,29.65,West,279,7.0,17.0,38,0.00,,,0.00,,2013-03-15 21:33:00,
2013-03-15 17:43:00,47.0,23.0,29.65,West,279,7.0,17.0,38,0.00,,,0.00,,2013-03-15 21:43:00,
2013-03-15 17:52:00,47.0,22.0,29.65,WNW,296,9.0,17.0,37,0.00,,,0.00,,2013-03-15 21:52:00,
2013-03-15 18:04:00,48.0,22.0,29.65,WSW,253,7.0,19.0,36,0.00,,,0.00,,2013-03-15 22:04:00,
2013-03-15 18:14:00,48.0,22.0,29.65,WSW,253,7.0,19.0,36,0.00,,,0.00,,2013-03-15 22:14:00,
2013-03-15 18:22:00,48.0,22.0,29.65,WSW,257,5.0,14.0,36,0.00,,,0.00,,2013-03-15 22:22:00,
2013-03-15 18:32:00,48.0,22.0,29.64,West,261,6.0,15.0,35,0.00,,,0.00,,2013-03-15 22:32:00,
2013-03-15 18:42:00,48.0,22.0,29.64,West,261,6.0,15.0,35,0.00,,,0.00,,2013-03-15 22:42:00,
2013-03-15 18:52:00,48.0,22.0,29.64,West,280,8.0,17.0,35,0.00,,,0.00,,2013-03-15 22:52:00,
2013-03-15 19:03:00,49.0,23.0,29.65,SSW,203,3.0,15.0,35,0.00,,,0.00,,2013-03-15 23:03:00,
2013-03-15 19:12:00,49.0,23.0,29.65,SSW,203,3.0,15.0,35,0.00,,,0.00,,2013-03-15 23:12:00,
2013-03-15 19:22:00,49.0,23.0,29.65,SSW,206,5.0,15.0,35,0.00,,,0.00,,2013-03-15 23:22:00,
2013-03-15 19:32:00,48.0,22.0,29.65,SW,232,5.0,13.0,35,0.00,,,0.00,,2013-03-15 23:32:00,
2013-03-15 19:42:00,48.0,22.0,29.65,SW,232,5.0,13.0,35,0.00,,,0.00,,2013-03-15 23:42:00,
2013-03-15 19:53:00,48.0,22.0,29.65,West,269,4.0,11.0,35,0.00,,,0.00,,2013-03-15 23:53:00,
2013-03-15 20:03:00,48.0,22.0,29.65,WSW,239,4.0,12.0,36,0.00,,,0.00,,2013-03-16 00:03:00,
2013-03-15 20:12:00,48.0,22.0,29.65,WSW,239,4.0,12.0,36,0.00,,,0.00,,2013-03-16 00:12:00,
2013-03-15 20:22:00,48.0,22.0,29.65,WSW,239,3.0,10.0,36,0.00,,,0.00,,2013-03-16 00:22:00,
2013-03-15 20:32:00,48.0,23.0,29.65,West,265,3.0,12.0,37,0.00,,,0.00,,2013-03-16 00:32:00,
2013-03-15 20:42:00,48.0,23.0,29.65,West,265,3.0,12.0,37,0.00,,,0.00,,2013-03-16 00:42:00,
2013-03-15 20:52:00,48.0,23.0,29.65,SW,236,2.0,9.0,37,0.00,,,0.00,,2013-03-16 00:52:00,
2013-03-15 21:03:00,48.0,23.0,29.65,WSW,242,3.0,9.0,37,0.00,,,0.00,,2013-03-16 01:03:00,
2013-03-15 21:12:00,48.0,23.0,29.65,WSW,242,3.0,9.0,37,0.00,,,0.00,,2013-03-16 01:12:00,
2013-03-15 21:22:00,48.0,23.0,29.65,WSW,250,2.0,10.0,37,0.00,,,0.00,,2013-03-16 01:22:00,
2013-03-15 21:32:00,48.0,24.0,29.66,SW,236,3.0,8.0,38,0.00,,,0.00,,2013-03-16 01:32:00,
2013-03-15 21:42:00,48.0,24.0,29.66,SW,236,3.0,8.0,38,0.00,,,0.00,,2013-03-16 01:42:00,
2013-03-15 21:52:00,48.0,24.0,29.66,West,281,3.0,12.0,38,0.00,,,0.00,,2013-03-16 01:52:00,
2013-03-15 22:02:00,48.0,24.0,29.67,WNW,284,3.0,7.0,38,0.00,,,0.00,,2013-03-16 02:02:00,
2013-03-15 22:12:00,48.0,24.0,29.67,WNW,284,3.0,7.0,38,0.00,,,0.00,,2013-03-16 02:12:00,
2013-03-15 22:23:00,48.0,24.0,29.67,WNW,289,4.0,8.0,38,0.00,,,0.00,,2013-03-16 02:23:00,
2013-03-15 22:33:00,48.0,25.0,29.68,WNW,290,0.0,3.0,40,0.00,,,0.00,,2013-03-16 02:33:00,
2013-03-15 22:42:00,48.0,25.0,29.68,WNW,290,0.0,3.0,40,0.00,,,0.00,,2013-03-16 02:42:00,
2013-03-15 22:52:00,47.0,25.0,29.68,WNW,290,0.0,0.0,41,0.00,,,0.00,,2013-03-16 02:52:00,
2013-03-15 23:02:00,47.0,25.0,29.68,WNW,290,0.0,4.0,41,0.00,,,0.00,,2013-03-16 03:02:00,
2013-03-15 23:12:00,47.0,25.0,29.68,WNW,290,0.0,4.0,41,0.00,,,0.00,,2013-03-16 03:12:00,
2013-03-15 23:22:00,47.0,26.0,29.68,WNW,290,0.0,2.0,43,0.00,,,0.00,,2013-03-16 03:22:00,
2013-03-15 23:33:00,47.0,27.0,29.69,WNW,290,0.0,3.0,45,0.00,,,0.00,,2013-03-16 03:33:00,
2013-03-15 23:43:00,47.0,27.0,29.69,WNW,290,0.0,3.0,45,0.00,,,0.00,,2013-03-16 03:43:00,
2013-03-15 23:52:00,47.0,27.0,29.69,WNW,290,0.0,3.0,45,0.00,,,0.00,,2013-03-16 03:52:00,